Flag for Poland Weather past 2 weeks in Opole, Poland

Now
48 °F

Light rain. Cloudy.


Feels Like: 45 °F
Forecast: 43 / 49 °F
Wind: 8 mph from Northwest

Location: Wroclaw Ii

Current Time: Oct 22, 2014 at 5:42:01 PM

Latest Report: Oct 22, 2014 at 5:00 PM


Visibility: N/A

Pressure: 29.68 "Hg

Humidity: 87%

Dew point: 45 °F

Location of OpoleLocation

Historic Weather in Opole — Graph

°F

Opole temperature yesterday

Maximum temperature yesterday: 64 °F (at 1:30 PM)
Minimum temperature yesterday: 52 °F (at 7:30 AM)
Average temperature yesterday: 57 °F

Past Weeks' High & Low Weather Summary

 TemperatureHumidityPressure
High77 °F (Oct 9, 3:00 PM)94% (Oct 8, 5:30 AM)30.30 "Hg (Oct 8, 5:30 AM)
Low45 °F (Oct 15, 2:30 AM)53% (Oct 19, 1:30 PM)29.50 "Hg (Oct 22, 1:00 AM)
Average58 °F83%29.91 "Hg
* Reported Oct 7 4:00 PM — Oct 22 4:30 PM, Opole, Weather by CustomWeather, © 2014

Note: Actual official high and low records may vary slightly from our data, if they occured in-between our weather recording intervals... More about our weather records

Advertising

Opole weather history for previous 24 hours

 ConditionsComfort  
Time TempWeatherWind HumidityBarometerVisibility
4:30 PM
Oct 22
48 °FLight rain. Broken clouds.10 mph87%29.65 "HgN/A
4:00 PM48 °FLight rain. Partly sunny.12 mph87%29.65 "HgN/A
3:30 PM48 °FLight rain. Broken clouds.10 mph87%29.65 "HgN/A
3:00 PM48 °FLight rain. Broken clouds.12 mph87%29.65 "HgN/A
2:30 PM46 °FLight rain. Partly sunny.10 mph93%29.65 "HgN/A
2:00 PM46 °FLight rain. Partly sunny.10 mph93%29.65 "HgN/A
1:30 PM46 °FLight rain. Mostly cloudy.9 mph93%29.65 "HgN/A
1:00 PM46 °FLight rain. Partly sunny.12 mph93%29.65 "HgN/A
12:30 PM46 °FLight rain. Cloudy.10 mph93%29.65 "HgN/A
12:00 PM46 °FLight rain. Cloudy.13 mph93%29.65 "HgN/A
11:30 AM48 °FLight rain. Partly sunny.12 mph87%29.65 "HgN/A
11:00 AM46 °FLight rain. Broken clouds.10 mph93%29.65 "HgN/A
10:30 AM48 °FLight rain. Broken clouds.10 mph87%29.65 "HgN/A
10:00 AM48 °FLight rain. Cloudy.12 mph87%29.65 "HgN/A
9:30 AM46 °FLight rain. Broken clouds.12 mph93%29.65 "HgN/A
9:00 AM48 °FLight rain. Broken clouds.15 mph87%29.62 "HgN/A
8:30 AM48 °FLight rain. Broken clouds.15 mph87%29.62 "HgN/A
8:00 AM48 °FLight rain. Passing clouds.12 mph87%29.62 "HgN/A
7:30 AM48 °FLight rain. Partly cloudy.17 mph87%29.59 "HgN/A
7:00 AM50 °FPassing clouds.18 mph82%29.59 "HgN/A
6:30 AM50 °FPassing clouds.16 mph82%29.59 "HgN/A
6:00 AM50 °FPartly cloudy.20 mph82%29.56 "HgN/A
5:30 AM50 °FSprinkles. Passing clouds.18 mph88%29.56 "HgN/A
5:00 AM50 °FSprinkles. Passing clouds.13 mph88%29.56 "HgN/A
4:30 AM50 °FRain showers. Passing clouds.15 mph94%29.56 "Hg5 mi
4:00 AM52 °FRain showers. Passing clouds.17 mph88%29.53 "Hg5 mi
3:30 AM52 °FSprinkles. Passing clouds.16 mph94%29.53 "HgN/A
3:00 AM54 °FRain showers. Passing clouds.9 mph88%29.53 "Hg2 mi
2:30 AM54 °FPassing clouds.3 mph88%29.50 "HgN/A
2:00 AM54 °FPassing clouds.3 mph88%29.50 "HgN/A
1:30 AM54 °FPassing clouds.3 mph88%29.50 "HgN/A
1:00 AM55 °FPassing clouds.3 mph77%29.50 "HgN/A
12:30 AM55 °FClear.3 mph77%29.53 "Hg10 mi
12:00 AM55 °FPassing clouds.3 mph77%29.53 "HgN/A
11:30 PM
Oct 21
55 °FPassing clouds.5 mph77%29.53 "HgN/A
11:00 PM54 °FClear.6 mph82%29.56 "Hg10 mi
10:30 PM55 °FClear.2 mph77%29.56 "Hg10 mi
10:00 PM57 °FClear.2 mph67%29.56 "Hg10 mi
9:30 PM55 °FPassing clouds.3 mph77%29.59 "HgN/A
9:00 PM55 °FPassing clouds.3 mph77%29.59 "HgN/A
8:30 PM55 °FPassing clouds.3 mph72%29.62 "HgN/A
8:00 PM55 °FPassing clouds.5 mph77%29.62 "HgN/A
7:30 PM57 °FPassing clouds.5 mph72%29.62 "HgN/A
7:00 PM55 °FClear.5 mph72%29.65 "Hg10 mi
6:30 PM57 °FPassing clouds.3 mph67%29.65 "HgN/A
6:00 PM59 °FPassing clouds.5 mph63%29.68 "HgN/A
5:30 PM59 °FPassing clouds.6 mph63%29.68 "HgN/A
5:00 PM63 °FPassing clouds.7 mph59%29.68 "HgN/A
Weather by CustomWeather, © 2014

See weather overviewHow to use our weather pages